Other Surface Observations
Issued by NWS Upton, NY

Home | Current Version | Previous Version | Text Only | Print | Product List | Glossary On
Versions: 1 2 3 4 5 6 7 8 9 10 11 12 13 14 15 16 17 18 19 20 21 22 23 24 25 26 27 28 29 30 31 32 33 34 35 36 37 38 39 40 41 42 43 44 45 46 47 48 49 50
776
SXUS51 KOKX 242157
OSOOKX
NEW YORK CITY METROPOLITAN AREA WEATHER ROUNDUP
National Weather Service New York NY
500 PM EST FRI NOV 24 2017

CITY           SKY/WX    TMP DP  RH WIND       PRES   REMARKS
Central Park   CLEAR     47  24  40 VRB3      29.98S
LaGuardia APRT PTCLDY    47  28  47 S9        29.96R
Kennedy INTL   PTCLDY    44  33  65 S8        29.99R
Newark Liberty PTCLDY    49  26  41 S8        29.96S
Teterboro APRT CLEAR     48  24  39 S8        29.95S
Bronx Bot Gard   N/A     46  27  46 SE5       29.97R
Bronx Lehman C   N/A     50 N/A N/A S5          N/A
Queens College   N/A     46 N/A N/A S8          N/A
Breezy Point     N/A     46 N/A N/A S9          N/A
Brooklyn Coll    N/A     46 N/A N/A S6          N/A
Staten Island    N/A     46 N/A N/A SE5         N/A

>>>>>>>>>>>>>>>>>>>>>>>>>>>>>>>>> KEY <<<<<<<<<<<<<<<<<<<<<<<<<<<<<<<
> SKY/WX - SKY CONDITION/PRESENT    : R : WCI - WIND CHILL INDEX    <
>          WEATHER                  : E : VSB - VISIBILITY IN MILES <
> TMP    - TEMPERATURE IN DEG F     : M : HX  - HEAT INDEX          <
> DP     - DEW POINT TEMPERATURE    : A : TC  - TEMPERATURE IN      <
> RH     - RELATIVE HUMIDITY        : R :       CELSIUS             <
> WIND   - DIRECTION/SPEED (MPH)    : K : VRB - VARIABLE WIND  DIR  <
> PRES   - PRESSURE (IN HG)         : S :                           <
>>>>>>>>>>>>>>>>>>>>>>>>>>>>>>>>> KEY <<<<<<<<<<<<<<<<<<<<<<<<<<<<<<<




USA.gov is the U.S. government's official web portal to all federal, state and local government web resources and services.